TITAN 3C TRANSTAGE DEB, 38702

Orbit data source: Space-Track

TITAN 3C TRANSTAGE DEB, 38702 is space debris in GEO originally from a launch on Thu, 26 Sep 1968 UTC launched from the Air Force Eastern Test Range (AFETR). Debris objects in space refer to the collection of defunct objects orbiting the Earth. Examples of debris include non-operational satellites, rocket bodies, and fragments generated from explosions, collisions, or faulty payload assembly.

Loading next visibility...
Identifier
38702, 1968-081AC
Orbit
GEO
Country
Flag of USUS
Related business
Manufacturer
Unknown
Mission
Spacecraft
Bus & Motor
Unknown
Mass
Unknown
Launch date (UTC)
1968-09-26 (58 years ago)
Launch vehicle
Unknown
Launch site
Air Force Eastern Test Range (AFETR)
Object type
Payload
Rocket body
Debris
Shape & HBR
Unknown shape, 1.1 m
Radar Cross Section
Small (<0.1 m²)

Expand to show TLE details & history
Last TLE update: 2 days ago

TLE from 2 days ago
0 TITAN 3C TRANSTAGE DEB
1 38702U 68081AC  26110.86086170 -.00000227  00000-0  00000-0 0  9991
2 38702   1.0245  43.7202 0223052  35.2766 325.6807  1.02229142 69138
Epoch: 2026-04-20T20:39Z
TLE epoch observation values (Epoch: 2026-04-20T20:39:38.450Z)
Latitude
Longitude
-115.64356°
Altitude
34,483.688 km
Speed
3.152 km/s
True Right ascension
02h 52m 50s
True Declination
0° 00' 00"
Sunlit
Object was in daylight at epoch
Visualization orbit readout
Latitude
Unknown
Longitude
Unknown
Altitude
Unknown
Speed
Unknown
Apparent Right ascension
Unknown
Apparent Declination
Unknown
Sunlit
N/A
Visualization observer readout
Local Sidereal Time
18:21:27
Azimuth
Unknown
Elevation
Unknown
Doppler factor
Unknown
Orbital elements
Apogee altitude
36,176.208 km
Perigee altitude
34,319.261 km
Semi-major axis
41,625.872 km
Eccentricity
0.02231
Inclination
1.0245°
RAAN
43.7202°
Arg. of periapsis
35.2766°
True anomaly
324.20585°
Mean anomaly
325.6807°
Eccentric anomaly
324.9467°
Mean motion
0.25556 °/min
Orbital period
1,408.65 mins
BSTAR
0
Loading maneuver chart data...
Computing Atmospheric mass density...

Documentation

Showing up to 5 results
|